This demonstration page uses our WeatherBlox Daily Observations layout. Learn more.

Left ArrowRight Arrow

41.12389, -100.76542

Hourly Observations for June 27, 2022

Temp ( °F °C ) Dew Point ( °F °C ) Humidity (%) Winds ( mph kmh ) Pressure ( in mb ) Visibility ( mi km ) Precip ( " mm )
12:53 am 00:53 Mostly Clear 59 15 47 8.3 64 64 ESE 6 9 30.32 1027 10 16 0.00 0.00
1:53 am 01:53 Clear 56 13.3 47 8.3 72 72 E 5 7 30.32 1027 10 16 0.00 0.00
2:53 am 02:53 Cloudy 56 13.3 46 7.8 70 70 ESE 6 9 30.31 1026 10 16 0.00 0.00
3:53 am 03:53 Clear 55 12.8 46 7.8 72 72 SSE 3 6 30.31 1026 10 16 0.00 0.00
4:53 am 04:53 Mostly Clear 54 12.2 44 6.7 69 69 E 5 7 30.31 1026 10 16 0.00 0.00
5:53 am 05:53 Partly Cloudy 55 12.8 44 6.7 67 67 ESE 3 6 30.31 1026 10 16 0.00 0.00
6:53 am 06:53 Mostly Sunny 54 12.2 45 7.2 72 72 Calm 30.32 1027 10 16 0.00 0.00
7:53 am 07:53 Sunny 59 15 47 8.3 64 64 E 5 7 30.32 1027 10 16 0.00 0.00
8:53 am 08:53 Sunny 67 19.4 47 8.3 49 49 SSE 5 7 30.31 1026 10 16 0.00 0.00
9:53 am 09:53 Sunny 75 23.9 46 7.8 36 36 S 10 17 30.29 1026 10 16 0.00 0.00
10:53 am 10:53 Sunny 79 26.1 41 5 26 26 S 13 20 30.27 1025 10 16 0.00 0.00
11:53 am 11:53 Sunny 81 27.2 40 4.4 23 23 SSE 12 19 30.25 1024 10 16 0.00 0.00
12:53 pm 12:53 Mostly Sunny 83 28.3 41 5 23 23 S 16 26 30.24 1024 10 16 0.00 0.00
1:53 pm 13:53 Mostly Sunny 84 28.9 43 6.1 24 24 S 16 26 30.21 1023 10 16 0.00 0.00
2:53 pm 14:53 Sunny with Light Rain 86 30 44 6.7 23 23 S 13 20 30.18 1022 10 16 0.00 0.00
3:53 pm 15:53 Sunny 87 30.6 43 6.1 21 21 SSW 14 22 30.15 1021 10 16 0.00 0.00
4:53 pm 16:53 Sunny 87 30.6 42 5.6 21 21 S 17 28 30.13 1020 10 16 0.00 0.00
5:53 pm 17:53 Sunny 86 30 43 6.1 22 22 S 15 24 30.11 1020 10 16 0.00 0.00
6:53 pm 18:53 Sunny 83 28.3 44 6.7 25 25 S 17 28 30.12 1020 10 16 0.00 0.00
7:53 pm 19:53 Sunny 80 26.7 44 6.7 28 28 S 14 22 30.11 1020 10 16 0.00 0.00
8:53 pm 20:53 Sunny 75 23.9 45 7.2 34 34 S 12 19 30.12 1020 10 16 0.00 0.00
9:53 pm 21:53 Clear 71 21.7 43 6.1 36 36 SSE 8 13 30.13 1020 10 16 0.00 0.00
10:53 pm 22:53 Clear 67 19.4 45 7.2 45 45 SSE 9 15 30.16 1021 10 16 0.00 0.00
11:53 pm 23:53 Clear 65 18.3 44 6.7 47 47 S 8 13 30.17 1022 10 16 0.00 0.00

Powered by AerisWeather